When you browse on this site, cookies collect data to enhance your experience and personalize the content and advertising you see.
Visit our Privacy Policy to learn more. By continuing to use the site, you agree to this use of cookies and data.
  • In Spain
  • List of Countries
  • For 7 days
  • Water Temperature
  • Satellite Maps
  • Weather Map
  • Weather Widgets
  • user-avatar
    Login

    Hourly Weather Kruhlyk

    Today, 19 March, Tuesday

    Time Temperature Precipitation Wind Pressure Humidity
    00:00 +4°C° 0 mm 2 mps 746 mmHg 82%
    01:00 +4°C° 0 mm 2 mps 746 mmHg 83%
    02:00 +3°C° 0 mm 2 mps 747 mmHg 85%
    03:00 +3°C° 0 mm 2 mps 746 mmHg 87%
    04:00 +2°C° 0 mm 2 mps 746 mmHg 88%
    05:00 +2°C° 0 mm 2 mps 746 mmHg 88%
    06:00 +2°C° 0 mm 2 mps 746 mmHg 89%
    07:00 +3°C° 0 mm 2 mps 747 mmHg 84%
    08:00 +4°C° 0 mm 2 mps 747 mmHg 79%
    09:00 +4°C° 0 mm 3 mps 747 mmHg 75%
    10:00 +5°C° 0 mm 3 mps 747 mmHg 69%
    11:00 +8°C° 0 mm 3 mps 747 mmHg 63%
    12:00 +8°C° 0 mm 4 mps 748 mmHg 56%
    13:00 +10°C° 0 mm 3 mps 747 mmHg 54%
    14:00 +10°C° 0 mm 3 mps 747 mmHg 52%
    15:00 +9°C° 0 mm 3 mps 747 mmHg 53%
    16:00 +9°C° 0 mm 3 mps 747 mmHg 55%
    17:00 +9°C° 0 mm 2 mps 747 mmHg 57%
    18:00 +8°C° 0 mm 2 mps 747 mmHg 59%
    19:00 +7°C° 0 mm 2 mps 747 mmHg 64%
    20:00 +6°C° 0 mm 2 mps 747 mmHg 68%
    21:00 +5°C° 0 mm 2 mps 747 mmHg 73%
    22:00 +5°C° 0 mm 2 mps 747 mmHg 75%
    23:00 +4°C° 0 mm 2 mps 747 mmHg 77%

    Tomorrow, 20 March, Wednesday

    Time Temperature Precipitation Wind Pressure Humidity
    00:00 +4°C° 0 mm 2 mps 747 mmHg 79%
    01:00 +4°C° 0 mm 1 mps 747 mmHg 80%
    02:00 +4°C° 0 mm 1 mps 746 mmHg 81%
    03:00 +4°C° 0 mm 1 mps 746 mmHg 82%
    04:00 +3°C° 0 mm 1 mps 746 mmHg 82%
    05:00 +3°C° 0 mm 1 mps 746 mmHg 83%
    06:00 +3°C° 0 mm 1 mps 746 mmHg 83%
    07:00 +4°C° 0 mm 1 mps 746 mmHg 78%
    08:00 +5°C° 0 mm 1 mps 747 mmHg 72%
    09:00 +6°C° 0 mm 1 mps 747 mmHg 67%
    10:00 +6°C° 0 mm 2 mps 747 mmHg 62%
    11:00 +8°C° 0 mm 2 mps 747 mmHg 57%
    12:00 +9°C° 0 mm 2 mps 746 mmHg 52%
    13:00 +10°C° 0 mm 2 mps 746 mmHg 49%
    14:00 +12°C° 0 mm 2 mps 746 mmHg 47%
    15:00 +12°C° 0 mm 1 mps 746 mmHg 44%
    16:00 +12°C° 0 mm 1 mps 746 mmHg 47%
    17:00 +12°C° 0 mm 1 mps 745 mmHg 50%
    18:00 +11°C° 0 mm 1 mps 745 mmHg 52%
    19:00 +10°C° 0 mm 1 mps 745 mmHg 56%
    20:00 +9°C° 0 mm 1 mps 745 mmHg 59%
    21:00 +8°C° 0 mm 1 mps 745 mmHg 63%
    22:00 +8°C° 0 mm 1 mps 745 mmHg 65%
    23:00 +7°C° 0 mm 1 mps 745 mmHg 66%

    Day after tomorrow, 21 March, Thursday

    Time Temperature Precipitation Wind Pressure Humidity
    00:00 +7°C° 0 mm 1 mps 745 mmHg 68%
    01:00 +7°C° 0 mm 1 mps 745 mmHg 69%
    02:00 +6°C° 0 mm 1 mps 745 mmHg 70%
    03:00 +6°C° 0 mm 1 mps 745 mmHg 71%
    04:00 +4°C° 0 mm 2 mps 745 mmHg 77%
    05:00 +4°C° 0 mm 2 mps 745 mmHg 83%
    06:00 +2°C° 0 mm 3 mps 745 mmHg 89%
    07:00 +2°C° 0 mm 3 mps 745 mmHg 89%
    08:00 +3°C° 0 mm 3 mps 745 mmHg 89%
    09:00 +3°C° 0 mm 4 mps 745 mmHg 88%
    10:00 +4°C° 0 mm 4 mps 745 mmHg 80%
    11:00 +5°C° 0 mm 4 mps 745 mmHg 71%
    12:00 +7°C° 0 mm 4 mps 745 mmHg 63%
    13:00 +7°C° 0 mm 4 mps 745 mmHg 56%
    14:00 +8°C° 0 mm 4 mps 745 mmHg 49%
    15:00 +8°C° 0 mm 5 mps 744 mmHg 42%
    16:00 +8°C° 0 mm 5 mps 744 mmHg 44%
    17:00 +7°C° 0 mm 4 mps 744 mmHg 47%
    18:00 +6°C° 0 mm 4 mps 744 mmHg 49%
    19:00 +6°C° 0 mm 4 mps 744 mmHg 53%
    20:00 +5°C° 0 mm 3 mps 744 mmHg 57%
    21:00 +4°C° 0 mm 3 mps 744 mmHg 61%
    22:00 +4°C° 0 mm 3 mps 744 mmHg 65%
    23:00 +3°C° 0 mm 4 mps 744 mmHg 69%

    22 March, Friday

    Time Temperature Precipitation Wind Pressure Humidity
    00:00 +1°C° 0 mm 4 mps 744 mmHg 73%
    01:00 +1°C° 0 mm 4 mps 744 mmHg 74%
    02:00 0°C° 0 mm 4 mps 744 mmHg 75%
    03:00 +1°C° 0 mm 3 mps 744 mmHg 76%
    04:00 0°C° 0 mm 3 mps 744 mmHg 78%
    05:00 -1°C° 0 mm 4 mps 744 mmHg 79%
    06:00 -1°C° 0 mm 4 mps 744 mmHg 80%
    07:00 0°C° 0 mm 4 mps 745 mmHg 74%
    08:00 +1°C° 0 mm 5 mps 745 mmHg 67%
    09:00 +2°C° 0 mm 6 mps 745 mmHg 61%
    10:00 +3°C° 0 mm 5 mps 745 mmHg 57%
    11:00 +5°C° 0 mm 5 mps 745 mmHg 54%
    12:00 +6°C° 0 mm 5 mps 745 mmHg 51%
    13:00 +6°C° 0 mm 5 mps 744 mmHg 52%
    14:00 +7°C° 0 mm 6 mps 744 mmHg 53%
    15:00 +7°C° 0 mm 6 mps 743 mmHg 55%
    16:00 +7°C° 0 mm 5 mps 743 mmHg 57%
    17:00 +7°C° 0 mm 5 mps 742 mmHg 59%
    18:00 +7°C° 0 mm 5 mps 741 mmHg 61%
    19:00 +7°C° 0 mm 5 mps 741 mmHg 65%
    20:00 +5°C° 0 mm 6 mps 741 mmHg 69%
    21:00 +5°C° 0 mm 6 mps 740 mmHg 73%
    22:00 +5°C° 0.1 mm 6 mps 740 mmHg 77%
    23:00 +5°C° 0.1 mm 7 mps 739 mmHg 81%

    23 March, Saturday

    Time Temperature Precipitation Wind Pressure Humidity
    00:00 +5°C° 0.1 mm 7 mps 739 mmHg 85%
    01:00 +4°C° 0.1 mm 7 mps 739 mmHg 82%
    02:00 +4°C° 0.1 mm 7 mps 738 mmHg 78%
    03:00 +4°C° 0.1 mm 6 mps 738 mmHg 75%
    04:00 +3°C° 0 mm 6 mps 738 mmHg 72%
    05:00 +1°C° 0 mm 6 mps 738 mmHg 70%
    06:00 -1°C° 0 mm 6 mps 739 mmHg 67%
    07:00 -1°C° 0 mm 7 mps 739 mmHg 66%
    08:00 -1°C° 0 mm 8 mps 740 mmHg 65%
    09:00 -1°C° 0 mm 8 mps 740 mmHg 64%
    10:00 0°C° 0 mm 8 mps 740 mmHg 62%
    11:00 0°C° 0 mm 8 mps 741 mmHg 60%
    12:00 +1°C° 0 mm 8 mps 741 mmHg 58%
    13:00 +1°C° 0 mm 8 mps 741 mmHg 58%
    14:00 +2°C° 0 mm 7 mps 741 mmHg 57%
    15:00 +2°C° 0 mm 7 mps 742 mmHg 57%
    16:00 +2°C° 0 mm 7 mps 742 mmHg 58%
    17:00 +2°C° 0 mm 7 mps 742 mmHg 59%
    18:00 0°C° 0 mm 7 mps 742 mmHg 61%
    19:00 +1°C° 0 mm 6 mps 743 mmHg 63%
    20:00 +1°C° 0 mm 5 mps 743 mmHg 64%
    21:00 0°C° 0 mm 4 mps 743 mmHg 66%
    22:00 0°C° 0 mm 4 mps 743 mmHg 69%
    23:00 0°C° 0 mm 3 mps 744 mmHg 72%

    24 March, Sunday

    Time Temperature Precipitation Wind Pressure Humidity
    00:00 -1°C° 0 mm 3 mps 744 mmHg 75%
    01:00 -1°C° 0 mm 3 mps 744 mmHg 77%
    02:00 -1°C° 0 mm 2 mps 744 mmHg 79%
    03:00 -2°C° 0 mm 2 mps 744 mmHg 81%
    04:00 -2°C° 0 mm 2 mps 744 mmHg 81%
    05:00 -2°C° 0 mm 2 mps 744 mmHg 81%
    06:00 -2°C° 0 mm 2 mps 744 mmHg 81%
    07:00 0°C° 0 mm 3 mps 744 mmHg 75%
    08:00 +1°C° 0 mm 3 mps 744 mmHg 69%
    09:00 +3°C° 0 mm 4 mps 744 mmHg 63%
    10:00 +4°C° 0 mm 4 mps 744 mmHg 59%
    11:00 +6°C° 0 mm 5 mps 744 mmHg 55%
    12:00 +7°C° 0 mm 5 mps 743 mmHg 51%
    13:00 +8°C° 0 mm 5 mps 743 mmHg 53%
    14:00 +9°C° 0 mm 6 mps 743 mmHg 54%
    15:00 +10°C° 0 mm 6 mps 743 mmHg 55%
    16:00 +9°C° 0.1 mm 5 mps 742 mmHg 62%
    17:00 +8°C° 0.1 mm 4 mps 742 mmHg 69%
    18:00 +8°C° 0.1 mm 4 mps 742 mmHg 77%
    19:00 +8°C° 0 mm 3 mps 742 mmHg 80%
    20:00 +8°C° 0 mm 3 mps 742 mmHg 84%
    21:00 +7°C° 0 mm 3 mps 743 mmHg 88%
    22:00 +7°C° 0 mm 2 mps 743 mmHg 88%
    23:00 +6°C° 0 mm 2 mps 743 mmHg 89%
    Show more